Time,TemperatureF,DewpointF,PressureIn,WindDirection,WindDirectionDegrees,WindSpeedMPH,WindSpeedGustMPH,Humidity,HourlyPrecipIn,Conditions,Clouds,dailyrainin,SolarRadiationWatts/m^2,SoftwareType,DateUTC
2013-04-29 00:04:00,46.2,33.5,30.24,SSE,160,1.0,1.0,61,0.00,,,0.00,0,Wunderground v.1.15,2013-04-29 04:04:00,
2013-04-29 00:09:00,46.1,33.4,30.24,SSE,160,1.0,1.0,61,0.00,,,0.00,0,Wunderground v.1.15,2013-04-29 04:09:00,
2013-04-29 00:14:00,46.1,33.8,30.24,SSE,163,1.0,2.0,62,0.00,,,0.00,0,Wunderground v.1.15,2013-04-29 04:14:00,
2013-04-29 00:19:00,46.3,34.0,30.23,SSE,162,2.0,4.0,62,0.00,,,0.00,0,Wunderground v.1.15,2013-04-29 04:19:00,
2013-04-29 00:24:00,46.3,33.6,30.23,South,180,2.0,2.0,61,0.00,,,0.00,0,Wunderground v.1.15,2013-04-29 04:24:00,
2013-04-29 00:29:00,46.3,34.0,30.23,SE,135,2.0,2.0,62,0.00,,,0.00,0,Wunderground v.1.15,2013-04-29 04:29:00,
2013-04-29 00:34:00,46.3,34.0,30.24,SSE,150,2.0,2.0,62,0.00,,,0.00,0,Wunderground v.1.15,2013-04-29 04:34:00,
2013-04-29 00:39:00,46.2,34.3,30.24,South,170,2.0,2.0,63,0.00,,,0.00,0,Wunderground v.1.15,2013-04-29 04:39:00,
2013-04-29 00:44:00,46.1,34.2,30.24,SSE,159,2.0,3.0,63,0.00,,,0.00,0,Wunderground v.1.15,2013-04-29 04:44:00,
2013-04-29 00:49:00,46.0,34.1,30.24,South,179,2.0,3.0,63,0.00,,,0.00,0,Wunderground v.1.15,2013-04-29 04:49:00,
2013-04-29 00:59:00,46.1,34.6,30.23,SE,137,2.0,3.0,64,0.00,,,0.00,0,Wunderground v.1.15,2013-04-29 04:59:00,
2013-04-29 01:04:00,45.9,34.4,30.23,SSE,158,1.0,2.0,64,0.00,,,0.00,0,Wunderground v.1.15,2013-04-29 05:04:00,
2013-04-29 01:09:00,45.8,34.7,30.23,South,182,1.0,2.0,65,0.00,,,0.00,0,Wunderground v.1.15,2013-04-29 05:09:00,
2013-04-29 01:14:00,45.8,35.1,30.23,SSE,153,1.0,1.0,66,0.00,,,0.00,0,Wunderground v.1.15,2013-04-29 05:14:00,
2013-04-29 01:19:00,45.8,35.5,30.23,SSE,164,1.0,1.0,67,0.00,,,0.00,0,Wunderground v.1.15,2013-04-29 05:19:00,
2013-04-29 01:24:00,45.7,35.7,30.23,SSE,165,1.0,2.0,68,0.00,,,0.00,0,Wunderground v.1.15,2013-04-29 05:24:00,
2013-04-29 01:34:00,45.7,36.5,30.23,South,183,2.0,2.0,70,0.00,,,0.00,0,Wunderground v.1.15,2013-04-29 05:34:00,
2013-04-29 01:39:00,45.6,36.7,30.23,South,183,1.0,2.0,71,0.00,,,0.00,0,Wunderground v.1.15,2013-04-29 05:39:00,
2013-04-29 01:44:00,45.6,36.4,30.23,South,180,1.0,1.0,70,0.00,,,0.00,0,Wunderground v.1.15,2013-04-29 05:44:00,
2013-04-29 01:49:00,45.6,36.7,30.23,South,180,0.0,1.0,71,0.00,,,0.00,0,Wunderground v.1.15,2013-04-29 05:49:00,
2013-04-29 01:54:00,45.5,36.6,30.22,SSE,163,0.0,0.0,71,0.00,,,0.00,0,Wunderground v.1.15,2013-04-29 05:54:00,
2013-04-29 02:04:00,45.4,37.2,30.22,SSE,163,0.0,0.0,73,0.00,,,0.00,0,Wunderground v.1.15,2013-04-29 06:04:00,
2013-04-29 02:14:00,45.4,37.9,30.22,South,180,1.0,1.0,75,0.00,,,0.00,0,Wunderground v.1.15,2013-04-29 06:14:00,
2013-04-29 02:19:00,45.4,38.3,30.22,South,182,1.0,1.0,76,0.00,,,0.00,0,Wunderground v.1.15,2013-04-29 06:19:00,
2013-04-29 02:24:00,45.4,38.6,30.22,South,182,0.0,0.0,77,0.00,,,0.00,0,Wunderground v.1.15,2013-04-29 06:24:00,
2013-04-29 02:29:00,45.4,38.9,30.21,SSW,204,0.0,0.0,78,0.00,,,0.00,0,Wunderground v.1.15,2013-04-29 06:29:00,
2013-04-29 02:39:00,45.4,39.3,30.22,SSW,204,0.0,0.0,79,0.00,,,0.00,0,Wunderground v.1.15,2013-04-29 06:39:00,
2013-04-29 02:44:00,45.4,39.6,30.22,SSW,205,0.0,0.0,80,0.00,,,0.00,0,Wunderground v.1.15,2013-04-29 06:44:00,
2013-04-29 02:49:00,45.4,39.9,30.21,South,185,0.0,0.0,81,0.00,,,0.00,0,Wunderground v.1.15,2013-04-29 06:49:00,
2013-04-29 02:59:00,45.3,39.8,30.21,South,185,0.0,0.0,81,0.00,,,0.00,0,Wunderground v.1.15,2013-04-29 06:59:00,
2013-04-29 03:04:00,45.2,39.7,30.22,South,185,0.0,0.0,81,0.00,,,0.00,0,Wunderground v.1.15,2013-04-29 07:04:00,
2013-04-29 03:09:00,45.2,40.0,30.22,South,185,0.0,0.0,82,0.00,,,0.00,0,Wunderground v.1.15,2013-04-29 07:09:00,
2013-04-29 03:14:00,45.2,40.0,30.21,South,185,0.0,0.0,82,0.00,,,0.00,0,Wunderground v.1.15,2013-04-29 07:14:00,
2013-04-29 03:19:00,45.2,40.0,30.22,South,185,0.0,0.0,82,0.00,,,0.00,0,Wunderground v.1.15,2013-04-29 07:19:00,
2013-04-29 03:24:00,45.2,40.3,30.21,South,185,0.0,0.0,83,0.00,,,0.00,0,Wunderground v.1.15,2013-04-29 07:24:00,
2013-04-29 03:34:00,45.2,40.3,30.21,South,185,0.0,0.0,83,0.00,,,0.00,0,Wunderground v.1.15,2013-04-29 07:34:00,
2013-04-29 03:39:00,45.3,40.4,30.21,South,185,0.0,0.0,83,0.00,,,0.00,0,Wunderground v.1.15,2013-04-29 07:39:00,
2013-04-29 03:44:00,45.4,40.5,30.22,South,185,0.0,0.0,83,0.00,,,0.00,0,Wunderground v.1.15,2013-04-29 07:44:00,
2013-04-29 03:49:00,45.4,40.5,30.21,South,185,0.0,0.0,83,0.00,,,0.00,0,Wunderground v.1.15,2013-04-29 07:49:00,
2013-04-29 03:54:00,45.4,40.5,30.21,South,185,0.0,0.0,83,0.00,,,0.00,0,Wunderground v.1.15,2013-04-29 07:54:00,
2013-04-29 03:59:00,45.5,40.9,30.22,South,185,0.0,0.0,84,0.00,,,0.00,0,Wunderground v.1.15,2013-04-29 07:59:00,
2013-04-29 04:09:00,45.4,41.2,30.22,South,185,0.0,0.0,85,0.00,,,0.00,0,Wunderground v.1.15,2013-04-29 08:09:00,
2013-04-29 04:14:00,45.5,41.3,30.22,South,185,0.0,0.0,85,0.00,,,0.00,0,Wunderground v.1.15,2013-04-29 08:14:00,
2013-04-29 04:19:00,45.5,41.3,30.22,South,185,0.0,0.0,85,0.00,,,0.00,0,Wunderground v.1.15,2013-04-29 08:19:00,
2013-04-29 04:24:00,45.4,41.2,30.22,South,185,0.0,0.0,85,0.00,,,0.00,0,Wunderground v.1.15,2013-04-29 08:24:00,
2013-04-29 04:34:00,45.4,41.2,30.22,South,185,0.0,0.0,85,0.00,,,0.00,0,Wunderground v.1.15,2013-04-29 08:34:00,
2013-04-29 04:39:00,45.4,41.5,30.22,South,185,0.0,0.0,86,0.00,,,0.00,0,Wunderground v.1.15,2013-04-29 08:39:00,
2013-04-29 04:44:00,45.4,41.5,30.22,South,185,0.0,0.0,86,0.00,,,0.00,0,Wunderground v.1.15,2013-04-29 08:44:00,
2013-04-29 04:49:00,45.4,41.5,30.22,South,185,0.0,0.0,86,0.00,,,0.00,0,Wunderground v.1.15,2013-04-29 08:49:00,
2013-04-29 04:59:00,45.4,41.8,30.22,South,185,0.0,0.0,87,0.00,,,0.00,0,Wunderground v.1.15,2013-04-29 08:59:00,
2013-04-29 05:04:00,45.4,41.8,30.22,South,185,0.0,0.0,87,0.00,,,0.00,0,Wunderground v.1.15,2013-04-29 09:04:00,
2013-04-29 05:09:00,45.4,41.8,30.22,South,185,0.0,0.0,87,0.00,,,0.00,0,Wunderground v.1.15,2013-04-29 09:09:00,
2013-04-29 05:14:00,45.4,41.8,30.22,South,185,0.0,0.0,87,0.00,,,0.00,0,Wunderground v.1.15,2013-04-29 09:14:00,
2013-04-29 05:24:00,45.4,41.8,30.22,South,185,0.0,0.0,87,0.00,,,0.00,0,Wunderground v.1.15,2013-04-29 09:24:00,
2013-04-29 05:29:00,45.4,42.1,30.22,South,185,0.0,0.0,88,0.00,,,0.00,0,Wunderground v.1.15,2013-04-29 09:29:00,
2013-04-29 05:39:00,45.4,42.1,30.22,South,185,0.0,0.0,88,0.00,,,0.00,0,Wunderground v.1.15,2013-04-29 09:39:00,
2013-04-29 05:44:00,45.4,42.3,30.22,South,185,0.0,0.0,89,0.00,,,0.00,0,Wunderground v.1.15,2013-04-29 09:44:00,
2013-04-29 05:49:00,45.4,42.3,30.22,South,185,0.0,0.0,89,0.00,,,0.00,0,Wunderground v.1.15,2013-04-29 09:49:00,
2013-04-29 05:54:00,45.5,42.4,30.22,South,185,0.0,0.0,89,0.00,,,0.00,0,Wunderground v.1.15,2013-04-29 09:54:00,
2013-04-29 05:59:00,45.5,42.4,30.22,South,185,0.0,0.0,89,0.00,,,0.00,0,Wunderground v.1.15,2013-04-29 09:59:00,
2013-04-29 06:09:00,45.5,42.4,30.23,South,185,0.0,0.0,89,0.00,,,0.00,0,Wunderground v.1.15,2013-04-29 10:09:00,
2013-04-29 06:14:00,45.5,42.4,30.23,South,185,0.0,0.0,89,0.00,,,0.00,7,Wunderground v.1.15,2013-04-29 10:14:00,
2013-04-29 06:19:00,45.5,42.4,30.23,South,185,0.0,0.0,89,0.00,,,0.00,11,Wunderground v.1.15,2013-04-29 10:19:00,
2013-04-29 06:24:00,45.5,42.4,30.23,South,185,0.0,0.0,89,0.00,,,0.00,11,Wunderground v.1.15,2013-04-29 10:24:00,
2013-04-29 06:29:00,45.5,42.4,30.23,South,185,0.0,0.0,89,0.00,,,0.00,11,Wunderground v.1.15,2013-04-29 10:29:00,
2013-04-29 06:34:00,45.5,42.4,30.23,South,185,0.0,0.0,89,0.00,,,0.00,11,Wunderground v.1.15,2013-04-29 10:34:00,
2013-04-29 06:44:00,45.6,42.5,30.23,South,185,0.0,0.0,89,0.00,,,0.00,16,Wunderground v.1.15,2013-04-29 10:44:00,
2013-04-29 06:49:00,45.6,42.5,30.23,South,185,0.0,0.0,89,0.00,,,0.00,25,Wunderground v.1.15,2013-04-29 10:49:00,
2013-04-29 06:54:00,45.7,42.9,30.23,South,185,0.0,0.0,90,0.00,,,0.00,39,Wunderground v.1.15,2013-04-29 10:54:00,
2013-04-29 06:59:00,45.8,43.0,30.23,South,185,0.0,0.0,90,0.00,,,0.00,49,Wunderground v.1.15,2013-04-29 10:59:00,
2013-04-29 07:09:00,46.1,43.6,30.24,South,185,0.0,0.0,91,0.00,,,0.00,54,Wunderground v.1.15,2013-04-29 11:09:00,
2013-04-29 07:14:00,46.4,43.9,30.24,South,185,0.0,0.0,91,0.00,,,0.00,60,Wunderground v.1.15,2013-04-29 11:14:00,
2013-04-29 07:24:00,46.8,44.3,30.24,South,185,0.0,0.0,91,0.00,,,0.00,49,Wunderground v.1.15,2013-04-29 11:24:00,
2013-04-29 07:29:00,47.0,44.5,30.24,South,185,0.0,0.0,91,0.00,,,0.00,54,Wunderground v.1.15,2013-04-29 11:29:00,
2013-04-29 07:34:00,47.1,44.6,30.24,South,185,0.0,0.0,91,0.00,,,0.00,70,Wunderground v.1.15,2013-04-29 11:34:00,
2013-04-29 07:39:00,47.3,44.8,30.24,South,185,0.0,0.0,91,0.00,,,0.00,86,Wunderground v.1.15,2013-04-29 11:39:00,
2013-04-29 07:44:00,47.6,44.8,30.24,SE,128,1.0,1.0,90,0.00,,,0.00,93,Wunderground v.1.15,2013-04-29 11:44:00,
2013-04-29 07:49:00,47.9,45.1,30.24,SE,130,1.0,1.0,90,0.00,,,0.00,97,Wunderground v.1.15,2013-04-29 11:49:00,
2013-04-29 07:59:00,48.4,45.3,30.24,SSE,157,1.0,2.0,89,0.00,,,0.00,135,Wunderground v.1.15,2013-04-29 11:59:00,
2013-04-29 08:09:00,49.1,46.0,30.23,South,170,1.0,1.0,89,0.00,,,0.00,127,Wunderground v.1.15,2013-04-29 12:09:00,
2013-04-29 08:14:00,49.4,46.0,30.23,SSE,147,1.0,1.0,88,0.00,,,0.00,135,Wunderground v.1.15,2013-04-29 12:14:00,
2013-04-29 08:24:00,50.1,46.1,30.23,SE,136,2.0,4.0,86,0.00,,,0.00,223,Wunderground v.1.15,2013-04-29 12:24:00,
2013-04-29 08:34:00,51.3,46.6,30.23,South,173,2.0,2.0,84,0.00,,,0.00,181,Wunderground v.1.15,2013-04-29 12:34:00,
2013-04-29 08:39:00,51.7,46.4,30.23,SE,142,2.0,2.0,82,0.00,,,0.00,204,Wunderground v.1.15,2013-04-29 12:39:00,
2013-04-29 08:44:00,52.0,46.3,30.23,ESE,122,2.0,3.0,81,0.00,,,0.00,221,Wunderground v.1.15,2013-04-29 12:44:00,
2013-04-29 08:54:00,53.6,46.9,30.23,SE,142,3.0,3.0,78,0.00,,,0.00,265,Wunderground v.1.15,2013-04-29 12:54:00,
2013-04-29 08:59:00,53.6,46.2,30.24,SE,142,3.0,3.0,76,0.00,,,0.00,318,Wunderground v.1.15,2013-04-29 12:59:00,
2013-04-29 09:09:00,54.1,46.3,30.24,SSE,157,3.0,3.0,75,0.00,,,0.00,404,Wunderground v.1.15,2013-04-29 13:09:00,
2013-04-29 09:14:00,55.2,47.1,30.23,South,171,3.0,4.0,74,0.00,,,0.00,352,Wunderground v.1.15,2013-04-29 13:14:00,
2013-04-29 09:19:00,55.2,47.1,30.24,SSE,160,3.0,4.0,74,0.00,,,0.00,439,Wunderground v.1.15,2013-04-29 13:19:00,
2013-04-29 09:24:00,55.5,47.3,30.24,South,171,4.0,7.0,74,0.00,,,0.00,378,Wunderground v.1.15,2013-04-29 13:24:00,
2013-04-29 09:34:00,56.3,48.5,30.23,SSW,192,4.0,7.0,75,0.00,,,0.00,397,Wunderground v.1.15,2013-04-29 13:34:00,
2013-04-29 09:44:00,55.8,46.9,30.23,East,94,5.0,6.0,72,0.00,,,0.00,283,Wunderground v.1.15,2013-04-29 13:44:00,
2013-04-29 09:49:00,56.0,46.7,30.23,SSE,150,4.0,6.0,71,0.00,,,0.00,255,Wunderground v.1.15,2013-04-29 13:49:00,
2013-04-29 09:54:00,55.6,46.3,30.23,South,177,4.0,7.0,71,0.00,,,0.00,232,Wunderground v.1.15,2013-04-29 13:54:00,
2013-04-29 09:59:00,55.7,46.4,30.23,SSE,151,4.0,7.0,71,0.00,,,0.00,193,Wunderground v.1.15,2013-04-29 13:59:00,
2013-04-29 10:04:00,56.0,46.4,30.23,South,171,3.0,3.0,70,0.00,,,0.00,225,Wunderground v.1.15,2013-04-29 14:04:00,
2013-04-29 10:09:00,55.9,45.9,30.23,South,175,4.0,5.0,69,0.00,,,0.00,257,Wunderground v.1.15,2013-04-29 14:09:00,
2013-04-29 10:14:00,55.9,45.9,30.23,South,190,4.0,6.0,69,0.00,,,0.00,243,Wunderground v.1.15,2013-04-29 14:14:00,
2013-04-29 10:19:00,55.9,45.5,30.23,SSE,162,5.0,6.0,68,0.00,,,0.00,244,Wunderground v.1.15,2013-04-29 14:19:00,
2013-04-29 10:29:00,55.7,44.9,30.23,South,172,5.0,6.0,67,0.00,,,0.00,260,Wunderground v.1.15,2013-04-29 14:29:00,
2013-04-29 10:39:00,55.8,44.6,30.24,ESE,113,5.0,6.0,66,0.00,,,0.00,236,Wunderground v.1.15,2013-04-29 14:39:00,
2013-04-29 10:49:00,55.5,45.1,30.24,SE,138,5.0,5.0,68,0.00,,,0.00,216,Wunderground v.1.15,2013-04-29 14:49:00,
2013-04-29 10:59:00,55.6,45.2,30.24,SSE,153,4.0,4.0,68,0.00,,,0.00,204,Wunderground v.1.15,2013-04-29 14:59:00,
2013-04-29 11:04:00,55.7,44.5,30.24,SE,142,4.0,4.0,66,0.00,,,0.00,188,Wunderground v.1.15,2013-04-29 15:04:00,
2013-04-29 11:09:00,55.8,44.2,30.23,SE,144,3.0,4.0,65,0.00,,,0.00,181,Wunderground v.1.15,2013-04-29 15:09:00,
2013-04-29 11:14:00,55.8,44.6,30.23,SSE,152,3.0,3.0,66,0.00,,,0.00,167,Wunderground v.1.15,2013-04-29 15:14:00,
2013-04-29 11:24:00,55.5,43.1,30.23,SE,127,5.0,6.0,63,0.00,,,0.00,163,Wunderground v.1.15,2013-04-29 15:24:00,
2013-04-29 11:29:00,55.3,42.9,30.23,South,175,5.0,6.0,63,0.00,,,0.00,185,Wunderground v.1.15,2013-04-29 15:29:00,
2013-04-29 11:39:00,55.4,43.4,30.23,South,179,3.0,4.0,64,0.00,,,0.00,218,Wunderground v.1.15,2013-04-29 15:39:00,
2013-04-29 11:44:00,55.5,43.1,30.23,SE,128,4.0,4.0,63,0.00,,,0.00,221,Wunderground v.1.15,2013-04-29 15:44:00,
2013-04-29 11:49:00,55.6,43.6,30.23,South,188,5.0,6.0,64,0.00,,,0.00,204,Wunderground v.1.15,2013-04-29 15:49:00,
2013-04-29 11:59:00,55.6,43.2,30.23,SSE,151,5.0,6.0,63,0.00,,,0.00,213,Wunderground v.1.15,2013-04-29 15:59:00,
2013-04-29 12:09:00,55.7,43.3,30.23,SSE,165,5.0,8.0,63,0.00,,,0.00,209,Wunderground v.1.15,2013-04-29 16:09:00,
2013-04-29 12:14:00,55.7,43.7,30.23,South,171,5.0,5.0,64,0.00,,,0.00,213,Wunderground v.1.15,2013-04-29 16:14:00,
2013-04-29 12:19:00,55.6,44.0,30.23,South,185,5.0,12.0,65,0.00,,,0.00,202,Wunderground v.1.15,2013-04-29 16:19:00,
2013-04-29 12:24:00,55.4,44.2,30.23,SSE,153,5.0,6.0,66,0.00,,,0.00,207,Wunderground v.1.15,2013-04-29 16:24:00,
2013-04-29 12:29:00,55.4,44.2,30.23,South,169,5.0,6.0,66,0.00,,,0.00,195,Wunderground v.1.15,2013-04-29 16:29:00,
2013-04-29 12:39:00,55.4,43.8,30.22,ESE,121,4.0,5.0,65,0.00,,,0.00,223,Wunderground v.1.15,2013-04-29 16:39:00,
2013-04-29 12:49:00,55.4,43.0,30.23,SE,142,4.0,6.0,63,0.00,,,0.00,200,Wunderground v.1.15,2013-04-29 16:49:00,
2013-04-29 12:54:00,55.4,43.4,30.23,South,190,4.0,10.0,64,0.00,,,0.00,213,Wunderground v.1.15,2013-04-29 16:54:00,
2013-04-29 12:59:00,55.3,43.3,30.23,South,185,5.0,10.0,64,0.00,,,0.00,193,Wunderground v.1.15,2013-04-29 16:59:00,
2013-04-29 13:04:00,55.1,43.9,30.23,SE,139,5.0,5.0,66,0.00,,,0.00,181,Wunderground v.1.15,2013-04-29 17:04:00,
2013-04-29 13:09:00,55.1,43.5,30.22,ESE,103,4.0,8.0,65,0.00,,,0.00,223,Wunderground v.1.15,2013-04-29 17:09:00,
2013-04-29 13:19:00,55.4,43.8,30.23,SE,139,4.0,4.0,65,0.00,,,0.00,229,Wunderground v.1.15,2013-04-29 17:19:00,
2013-04-29 13:24:00,55.5,43.5,30.22,South,171,5.0,6.0,64,0.00,,,0.00,207,Wunderground v.1.15,2013-04-29 17:24:00,
2013-04-29 13:29:00,55.4,43.0,30.22,SSE,165,5.0,7.0,63,0.00,,,0.00,237,Wunderground v.1.15,2013-04-29 17:29:00,
2013-04-29 13:34:00,55.5,43.1,30.22,SSE,162,5.0,5.0,63,0.00,,,0.00,206,Wunderground v.1.15,2013-04-29 17:34:00,
2013-04-29 13:39:00,55.5,43.1,30.22,SSE,153,4.0,5.0,63,0.00,,,0.00,206,Wunderground v.1.15,2013-04-29 17:39:00,
2013-04-29 13:44:00,55.5,43.1,30.22,South,176,4.0,5.0,63,0.00,,,0.00,246,Wunderground v.1.15,2013-04-29 17:44:00,
2013-04-29 13:49:00,55.6,41.9,30.22,South,187,5.0,6.0,60,0.00,,,0.00,258,Wunderground v.1.15,2013-04-29 17:49:00,
2013-04-29 13:54:00,55.7,42.0,30.22,SSE,158,5.0,6.0,60,0.00,,,0.00,199,Wunderground v.1.15,2013-04-29 17:54:00,
2013-04-29 13:59:00,55.7,43.3,30.22,SE,125,5.0,6.0,63,0.00,,,0.00,197,Wunderground v.1.15,2013-04-29 17:59:00,
2013-04-29 14:04:00,55.8,43.4,30.22,ESE,112,5.0,5.0,63,0.00,,,0.00,190,Wunderground v.1.15,2013-04-29 18:04:00,
2013-04-29 14:09:00,55.7,42.5,30.22,SSW,192,5.0,5.0,61,0.00,,,0.00,186,Wunderground v.1.15,2013-04-29 18:09:00,
2013-04-29 14:14:00,55.7,42.5,30.22,SSW,192,4.0,4.0,61,0.00,,,0.00,209,Wunderground v.1.15,2013-04-29 18:14:00,
2013-04-29 14:24:00,55.7,42.0,30.22,ESE,120,3.0,5.0,60,0.00,,,0.00,214,Wunderground v.1.15,2013-04-29 18:24:00,
2013-04-29 14:29:00,55.8,42.5,30.23,South,175,4.0,6.0,61,0.00,,,0.00,144,Wunderground v.1.15,2013-04-29 18:29:00,
2013-04-29 14:34:00,55.8,43.0,30.23,SSE,155,4.0,9.0,62,0.00,,,0.00,137,Wunderground v.1.15,2013-04-29 18:34:00,
2013-04-29 14:39:00,55.5,41.0,30.23,SE,134,4.0,9.0,58,0.00,,,0.00,153,Wunderground v.1.15,2013-04-29 18:39:00,
2013-04-29 14:49:00,55.2,39.8,30.23,South,191,5.0,6.0,56,0.00,,,0.00,153,Wunderground v.1.15,2013-04-29 18:49:00,
2013-04-29 14:54:00,55.0,38.6,30.23,SSE,156,4.0,4.0,54,0.00,,,0.00,144,Wunderground v.1.15,2013-04-29 18:54:00,
2013-04-29 14:59:00,54.9,37.6,30.23,South,171,5.0,7.0,52,0.00,,,0.00,135,Wunderground v.1.15,2013-04-29 18:59:00,
2013-04-29 15:04:00,54.7,37.4,30.23,ESE,123,5.0,5.0,52,0.00,,,0.00,135,Wunderground v.1.15,2013-04-29 19:04:00,
2013-04-29 15:09:00,54.6,38.3,30.23,South,177,6.0,6.0,54,0.00,,,0.00,156,Wunderground v.1.15,2013-04-29 19:09:00,
2013-04-29 15:19:00,54.5,38.7,30.22,SSE,165,4.0,5.0,55,0.00,,,0.00,165,Wunderground v.1.15,2013-04-29 19:19:00,
2013-04-29 15:24:00,54.4,39.0,30.22,South,173,4.0,5.0,56,0.00,,,0.00,171,Wunderground v.1.15,2013-04-29 19:24:00,
2013-04-29 15:29:00,54.4,39.0,30.22,SE,126,5.0,5.0,56,0.00,,,0.00,176,Wunderground v.1.15,2013-04-29 19:29:00,
2013-04-29 15:34:00,54.5,39.1,30.22,SSE,155,4.0,4.0,56,0.00,,,0.00,186,Wunderground v.1.15,2013-04-29 19:34:00,
2013-04-29 15:44:00,54.8,40.3,30.22,ESE,122,3.0,5.0,58,0.00,,,0.00,192,Wunderground v.1.15,2013-04-29 19:44:00,
2013-04-29 15:54:00,55.1,38.7,30.22,East,81,3.0,6.0,54,0.00,,,0.00,149,Wunderground v.1.15,2013-04-29 19:54:00,
2013-04-29 16:04:00,55.0,39.6,30.21,SE,142,5.0,5.0,56,0.00,,,0.00,121,Wunderground v.1.15,2013-04-29 20:04:00,
2013-04-29 16:09:00,54.9,38.6,30.22,SSE,167,4.0,5.0,54,0.00,,,0.00,109,Wunderground v.1.15,2013-04-29 20:09:00,
2013-04-29 16:19:00,54.8,38.9,30.21,South,173,4.0,4.0,55,0.00,,,0.00,139,Wunderground v.1.15,2013-04-29 20:19:00,
2013-04-29 16:29:00,54.8,38.9,30.21,South,182,4.0,7.0,55,0.00,,,0.00,114,Wunderground v.1.15,2013-04-29 20:29:00,
2013-04-29 16:34:00,54.8,39.8,30.21,SE,136,4.0,4.0,57,0.00,,,0.00,104,Wunderground v.1.15,2013-04-29 20:34:00,
2013-04-29 16:39:00,54.7,39.3,30.21,SSE,167,4.0,7.0,56,0.00,,,0.00,114,Wunderground v.1.15,2013-04-29 20:39:00,
2013-04-29 16:44:00,54.7,39.8,30.21,SE,131,4.0,4.0,57,0.00,,,0.00,107,Wunderground v.1.15,2013-04-29 20:44:00,
2013-04-29 16:49:00,54.7,39.3,30.21,SSE,159,4.0,4.0,56,0.00,,,0.00,98,Wunderground v.1.15,2013-04-29 20:49:00,
2013-04-29 16:54:00,54.6,38.3,30.22,SSE,161,4.0,6.0,54,0.00,,,0.00,104,Wunderground v.1.15,2013-04-29 20:54:00,
2013-04-29 17:04:00,54.2,38.4,30.22,SSE,164,5.0,5.0,55,0.00,,,0.00,90,Wunderground v.1.15,2013-04-29 21:04:00,
2013-04-29 17:09:00,54.2,39.7,30.21,SSE,157,5.0,6.0,58,0.00,,,0.00,97,Wunderground v.1.15,2013-04-29 21:09:00,
2013-04-29 17:19:00,54.0,40.0,30.22,SSE,162,4.0,5.0,59,0.00,,,0.00,62,Wunderground v.1.15,2013-04-29 21:19:00,
2013-04-29 17:24:00,53.9,40.3,30.22,SE,142,4.0,4.0,60,0.00,,,0.00,62,Wunderground v.1.15,2013-04-29 21:24:00,
2013-04-29 17:34:00,53.7,40.6,30.21,South,171,4.0,4.0,61,0.00,,,0.00,47,Wunderground v.1.15,2013-04-29 21:34:00,
2013-04-29 17:39:00,53.6,41.3,30.21,SSE,158,4.0,6.0,63,0.00,,,0.00,53,Wunderground v.1.15,2013-04-29 21:39:00,
2013-04-29 17:44:00,53.5,41.2,30.22,East,100,4.0,5.0,63,0.00,,,0.00,60,Wunderground v.1.15,2013-04-29 21:44:00,
2013-04-29 17:49:00,53.4,40.7,30.22,SSE,149,4.0,5.0,62,0.00,,,0.00,60,Wunderground v.1.15,2013-04-29 21:49:00,
2013-04-29 17:59:00,53.3,40.6,30.22,South,169,4.0,7.0,62,0.00,,,0.00,63,Wunderground v.1.15,2013-04-29 21:59:00,
2013-04-29 18:09:00,53.2,40.5,30.22,South,169,4.0,5.0,62,0.00,,,0.00,53,Wunderground v.1.15,2013-04-29 22:09:00,
2013-04-29 18:14:00,53.2,40.5,30.22,SE,133,4.0,4.0,62,0.00,,,0.00,46,Wunderground v.1.15,2013-04-29 22:14:00,
2013-04-29 18:19:00,53.2,40.9,30.22,South,178,3.0,4.0,63,0.00,,,0.00,39,Wunderground v.1.15,2013-04-29 22:19:00,
2013-04-29 18:24:00,53.1,40.0,30.22,SSE,154,3.0,3.0,61,0.00,,,0.00,35,Wunderground v.1.15,2013-04-29 22:24:00,
2013-04-29 18:29:00,53.0,40.3,30.22,South,178,4.0,4.0,62,0.00,,,0.00,33,Wunderground v.1.15,2013-04-29 22:29:00,
2013-04-29 18:39:00,52.9,40.2,30.21,SE,143,3.0,6.0,62,0.00,,,0.00,30,Wunderground v.1.15,2013-04-29 22:39:00,
2013-04-29 18:44:00,52.9,40.6,30.21,SE,128,2.0,2.0,63,0.00,,,0.00,25,Wunderground v.1.15,2013-04-29 22:44:00,
2013-04-29 18:49:00,52.8,40.1,30.21,SE,141,2.0,2.0,62,0.00,,,0.00,21,Wunderground v.1.15,2013-04-29 22:49:00,
2013-04-29 18:59:00,52.6,39.9,30.21,South,178,2.0,4.0,62,0.00,,,0.00,16,Wunderground v.1.15,2013-04-29 22:59:00,
2013-04-29 19:04:00,52.6,39.5,30.21,SSE,163,2.0,2.0,61,0.00,,,0.00,16,Wunderground v.1.15,2013-04-29 23:04:00,
2013-04-29 19:09:00,52.5,39.8,30.22,South,182,3.0,3.0,62,0.00,,,0.00,14,Wunderground v.1.15,2013-04-29 23:09:00,
2013-04-29 19:14:00,52.4,39.8,30.22,SSE,155,2.0,5.0,62,0.00,,,0.00,12,Wunderground v.1.15,2013-04-29 23:14:00,
2013-04-29 19:19:00,52.3,39.2,30.22,SSE,159,2.0,5.0,61,0.00,,,0.00,11,Wunderground v.1.15,2013-04-29 23:19:00,
2013-04-29 19:29:00,52.2,39.6,30.22,South,190,2.0,3.0,62,0.00,,,0.00,7,Wunderground v.1.15,2013-04-29 23:29:00,
2013-04-29 19:34:00,52.1,38.6,30.22,SSE,164,2.0,2.0,60,0.00,,,0.00,0,Wunderground v.1.15,2013-04-29 23:34:00,
2013-04-29 19:39:00,52.1,38.6,30.22,SSE,151,2.0,2.0,60,0.00,,,0.00,0,Wunderground v.1.15,2013-04-29 23:39:00,
2013-04-29 19:44:00,51.9,37.6,30.23,SSE,159,2.0,2.0,58,0.00,,,0.00,0,Wunderground v.1.15,2013-04-29 23:44:00,
2013-04-29 19:54:00,51.7,36.5,30.23,SSE,153,3.0,5.0,56,0.00,,,0.00,0,Wunderground v.1.15,2013-04-29 23:54:00,
2013-04-29 19:59:00,51.6,37.3,30.23,SSE,153,4.0,5.0,58,0.00,,,0.00,0,Wunderground v.1.15,2013-04-29 23:59:00,
2013-04-29 20:09:00,51.5,36.8,30.23,South,169,2.0,3.0,57,0.00,,,0.00,0,Wunderground v.1.15,2013-04-30 00:09:00,
2013-04-29 20:19:00,51.3,37.0,30.23,SSE,167,2.0,2.0,58,0.00,,,0.00,0,Wunderground v.1.15,2013-04-30 00:19:00,
2013-04-29 20:24:00,51.3,37.0,30.23,SSE,165,2.0,2.0,58,0.00,,,0.00,0,Wunderground v.1.15,2013-04-30 00:24:00,
2013-04-29 20:29:00,51.2,36.9,30.23,ESE,108,2.0,2.0,58,0.00,,,0.00,0,Wunderground v.1.15,2013-04-30 00:29:00,
2013-04-29 20:34:00,51.1,36.8,30.23,SSW,195,2.0,2.0,58,0.00,,,0.00,0,Wunderground v.1.15,2013-04-30 00:34:00,
2013-04-29 20:44:00,51.0,36.7,30.24,SSW,208,2.0,4.0,58,0.00,,,0.00,0,Wunderground v.1.15,2013-04-30 00:44:00,
2013-04-29 20:54:00,50.8,36.5,30.24,South,188,2.0,2.0,58,0.00,,,0.00,0,Wunderground v.1.15,2013-04-30 00:54:00,
2013-04-29 21:04:00,50.7,36.9,30.24,SSW,196,2.0,2.0,59,0.00,,,0.00,0,Wunderground v.1.15,2013-04-30 01:04:00,
2013-04-29 21:14:00,50.6,36.8,30.25,SSE,160,1.0,1.0,59,0.00,,,0.00,0,Wunderground v.1.15,2013-04-30 01:14:00,
2013-04-29 21:19:00,50.5,36.3,30.25,South,169,2.0,2.0,58,0.00,,,0.00,0,Wunderground v.1.15,2013-04-30 01:19:00,
2013-04-29 21:29:00,50.3,36.1,30.25,South,170,3.0,3.0,58,0.00,,,0.00,0,Wunderground v.1.15,2013-04-30 01:29:00,
2013-04-29 21:34:00,50.3,36.1,30.25,South,178,2.0,2.0,58,0.00,,,0.00,0,Wunderground v.1.15,2013-04-30 01:34:00,
2013-04-29 21:44:00,50.1,35.9,30.25,SSE,148,2.0,3.0,58,0.00,,,0.00,0,Wunderground v.1.15,2013-04-30 01:44:00,
2013-04-29 21:49:00,50.1,35.9,30.25,SSW,192,2.0,3.0,58,0.00,,,0.00,0,Wunderground v.1.15,2013-04-30 01:49:00,
2013-04-29 21:54:00,50.0,35.8,30.25,South,171,2.0,2.0,58,0.00,,,0.00,0,Wunderground v.1.15,2013-04-30 01:54:00,
2013-04-29 21:59:00,50.0,36.2,30.25,South,171,1.0,2.0,59,0.00,,,0.00,0,Wunderground v.1.15,2013-04-30 01:59:00,
2013-04-29 22:09:00,49.9,36.6,30.25,South,171,0.0,1.0,60,0.00,,,0.00,0,Wunderground v.1.15,2013-04-30 02:09:00,
2013-04-29 22:14:00,49.8,36.9,30.25,SSE,158,1.0,1.0,61,0.00,,,0.00,0,Wunderground v.1.15,2013-04-30 02:14:00,
2013-04-29 22:19:00,49.7,36.8,30.25,SSE,164,1.0,1.0,61,0.00,,,0.00,0,Wunderground v.1.15,2013-04-30 02:19:00,
2013-04-29 22:24:00,49.6,37.5,30.25,South,169,1.0,1.0,63,0.00,,,0.00,0,Wunderground v.1.15,2013-04-30 02:24:00,
2013-04-29 22:29:00,49.5,37.0,30.25,SSE,166,1.0,1.0,62,0.00,,,0.00,0,Wunderground v.1.15,2013-04-30 02:29:00,
2013-04-29 22:39:00,49.4,37.3,30.25,SE,141,1.0,4.0,63,0.00,,,0.00,0,Wunderground v.1.15,2013-04-30 02:39:00,
2013-04-29 22:44:00,49.4,37.3,30.25,SSE,163,1.0,1.0,63,0.00,,,0.00,0,Wunderground v.1.15,2013-04-30 02:44:00,
2013-04-29 22:54:00,49.3,37.6,30.25,SSE,165,0.0,0.0,64,0.00,,,0.00,0,Wunderground v.1.15,2013-04-30 02:54:00,
2013-04-29 22:59:00,49.3,37.2,30.25,SSE,165,0.0,0.0,63,0.00,,,0.00,0,Wunderground v.1.15,2013-04-30 02:59:00,
2013-04-29 23:04:00,49.2,37.1,30.25,SSE,165,0.0,0.0,63,0.00,,,0.00,0,Wunderground v.1.15,2013-04-30 03:04:00,
2013-04-29 23:14:00,49.1,37.0,30.25,SSE,165,0.0,0.0,63,0.00,,,0.00,0,Wunderground v.1.15,2013-04-30 03:14:00,
2013-04-29 23:19:00,49.0,37.3,30.25,SSE,165,0.0,0.0,64,0.00,,,0.00,0,Wunderground v.1.15,2013-04-30 03:19:00,
2013-04-29 23:24:00,48.9,37.6,30.25,SSE,165,0.0,1.0,65,0.00,,,0.00,0,Wunderground v.1.15,2013-04-30 03:24:00,
2013-04-29 23:34:00,48.7,38.6,30.24,SSE,159,1.0,1.0,68,0.00,,,0.00,0,Wunderground v.1.15,2013-04-30 03:34:00,
2013-04-29 23:39:00,48.5,38.4,30.24,SSE,150,1.0,2.0,68,0.00,,,0.00,0,Wunderground v.1.15,2013-04-30 03:39:00,
2013-04-29 23:44:00,48.4,38.7,30.24,SE,144,1.0,1.0,69,0.00,,,0.00,0,Wunderground v.1.15,2013-04-30 03:44:00,
2013-04-29 23:49:00,48.2,38.5,30.24,SE,146,1.0,2.0,69,0.00,,,0.00,0,Wunderground v.1.15,2013-04-30 03:49:00,
2013-04-29 23:54:00,48.1,38.8,30.24,SSE,150,1.0,3.0,70,0.00,,,0.00,0,Wunderground v.1.15,2013-04-30 03:54:00,
2013-04-29 23:59:00,47.9,38.9,30.25,SSE,155,2.0,3.0,71,0.00,,,0.00,0,Wunderground v.1.15,2013-04-30 03:59:00,